DW1274 Weather Reports


Display with metric or nautical units.
time (UTC)temp
F
wind
direction
speed
MPH
gust
MPH
rain 1hr
in
rain 24hr
in
rain mn
in
humidity
%
barometer
mb
20260502140129 64 357 3.0 5.0 0.05 0.05 0.05 90 1008.9
20260502130629 65 358 2.0 4.0 0.00 0.00 0.00 87 1009.3
20260502130129 65 308 1.0 4.0 0.00 0.00 0.00 88 1009.3
20260502123630 65 253 1.0 2.0 0.00 0.00 0.00 88 1009.1
20260502123130 65 0 1.0 4.0 0.00 0.00 0.00 88 1008.4
20260502122631 65 163 0.0 4.0 0.00 0.00 0.00 87 1008.6
20260502121628 65 0 0.0 1.0 0.00 0.00 0.00 87 1008.9
20260502121129 65 0 0.0 2.0 0.00 0.00 0.00 87 1008.8
20260502120133 64 100 1.0 2.0 0.00 0.00 0.00 87 1008.7
20260502115630 64 0 0.0 2.0 0.00 0.00 0.00 87 1008.5
20260502115129 64 0 1.0 3.0 0.00 0.00 0.00 87 1008.5
20260502114628 64 285 2.0 3.0 0.00 0.00 0.00 87 1008.5
20260502114129 64 48 1.0 3.0 0.00 0.00 0.00 87 1008.5
20260502113628 64 17 2.0 4.0 0.00 0.00 0.00 87 1008.5
20260502113129 64 8 3.0 5.0 0.00 0.00 0.00 87 1008.5
20260502112129 64 25 2.0 5.0 0.00 0.00 0.00 87 1008.6
20260502111128 64 20 3.0 5.0 0.00 0.00 0.00 88 1008.9
20260502110630 64 355 3.0 5.0 0.00 0.00 0.00 88 1008.8
20260502105629 64 319 2.0 4.0 0.00 0.00 0.00 88 1008.6
20260502105129 64 296 2.0 4.0 0.00 0.00 0.00 88 1008.6
20260502104630 64 314 2.0 3.0 0.00 0.00 0.00 88 1008.4
20260502104129 64 279 2.0 3.0 0.00 0.00 0.00 88 1008.2
20260502103630 64 11 2.0 3.0 0.00 0.00 0.00 89 1008.1
20260502102129 64 280 1.0 4.0 0.00 0.00 0.00 89 1008.0
20260502101630 64 288 1.0 3.0 0.00 0.00 0.00 90 1007.9
20260502101129 64 302 2.0 4.0 0.00 0.00 0.00 90 1007.8
20260502100630 64 298 2.0 4.0 0.00 0.00 0.00 90 1007.8
20260502100129 64 321 2.0 4.0 0.00 0.00 0.00 90 1007.6
20260502090130 65 245 2.0 5.0 0.00 0.00 0.00 88 1007.4
20260502071102 66 233 1.0 2.0 0.00 0.00 0.00 89 1009.9
20260502070106 66 297 1.0 2.0 0.00 0.00 0.00 89 1010.0
20260502065602 66 348 1.0 4.0 0.00 0.00 0.00 88 1009.9
20260502065103 66 285 2.0 4.0 0.00 0.00 0.00 88 1009.8
20260502064102 66 296 1.0 2.0 0.00 0.00 0.00 89 1009.6
20260502063601 66 0 1.0 2.0 0.00 0.00 0.00 89 1009.5
20260502062603 66 0 0.0 0.0 0.00 0.00 0.00 90 1009.5
20260502062101 66 0 0.0 1.0 0.00 0.00 0.00 90 1009.5
20260502061602 66 0 0.0 1.0 0.00 0.00 0.00 90 1009.6
20260502061102 66 0 0.0 1.0 0.00 0.00 0.00 90 1009.6
20260502060601 66 0 0.0 0.0 0.00 0.00 0.00 89 1009.6
20260502055602 66 0 0.0 0.0 0.00 0.00 0.00 89 1010.0
20260502055100 66 0 0.0 0.0 0.00 0.00 0.00 89 1010.0
20260502054602 66 0 0.0 0.0 0.00 0.00 0.00 88 1010.2
20260502054102 66 0 0.0 1.0 0.00 0.00 0.00 88 1010.1
20260502053103 67 322 0.0 1.0 0.00 0.00 0.00 88 1010.0
20260502052102 67 0 0.0 1.0 0.00 0.00 0.00 87 1010.0
20260502051102 67 47 0.0 1.0 0.00 0.00 0.00 87 1010.2
20260502045102 69 0 1.0 3.0 0.00 0.00 0.00 84 1010.5
20260502044602 69 222 1.0 3.0 0.00 0.00 0.00 83 1010.5
20260502044101 70 223 0.0 2.0 0.00 0.00 0.00 82 1010.5
20260502043602 70 0 0.0 2.0 0.00 0.00 0.00 80 1010.2
20260502042603 70 346 1.0 2.0 0.00 0.00 0.00 80 1010.3
20260502042102 70 37 1.0 2.0 0.00 0.00 0.00 79 1010.2
20260502041602 70 315 1.0 2.0 0.00 0.00 0.00 79 1010.4
20260502041102 70 347 1.0 2.0 0.00 0.00 0.00 79 1010.5
20260502040601 70 338 0.0 2.0 0.00 0.00 0.00 79 1010.5
20260502035601 71 32 1.0 2.0 0.00 0.00 0.00 79 1010.6
20260502035102 71 305 2.0 3.0 0.00 0.00 0.00 79 1010.7
20260502034602 71 290 1.0 3.0 0.00 0.00 0.00 79 1010.7
20260502033601 71 17 1.0 4.0 0.00 0.00 0.00 79 1010.4
20260502033102 71 21 1.0 2.0 0.00 0.00 0.00 79 1010.4
20260502032602 71 0 1.0 2.0 0.00 0.00 0.00 79 1010.5
20260502032101 72 23 1.0 2.0 0.00 0.00 0.00 79 1010.5
20260502031602 72 39 1.0 2.0 0.00 0.00 0.00 79 1010.5
20260502031101 72 351 2.0 5.0 0.00 0.00 0.00 79 1010.7
20260502030601 72 20 3.0 6.0 0.00 0.00 0.00 79 1010.4
20260502025603 72 56 3.0 9.0 0.00 0.00 0.00 82 1009.9
20260502025101 72 345 2.0 6.0 0.00 0.00 0.00 86 1010.3
20260502024602 72 67 2.0 6.0 0.00 0.00 0.00 87 1010.2
20260502024100 72 109 2.0 6.0 0.00 0.00 0.00 88 1010.2
20260502023600 73 26 2.0 6.0 0.00 0.00 0.00 88 1010.3
20260502023102 73 24 2.0 7.0 0.00 0.00 0.00 87 1010.7
20260502022600 73 0 2.0 7.0 0.00 0.00 0.00 87 1010.7
20260502022101 73 74 3.0 6.0 0.00 0.00 0.00 87 1010.4
20260502021601 73 76 2.0 5.0 0.00 0.00 0.00 87 1010.7
20260502021101 73 33 1.0 4.0 0.00 0.00 0.00 87 1010.5
20260502020601 73 36 2.0 6.0 0.00 0.00 0.00 86 1010.6
20260502015601 73 33 3.0 6.0 0.00 0.00 0.00 86 1010.8
20260502014602 0 353 1.0 1.0 0.00 0.00 0.00
20260502014101 74 5 2.0 5.0 0.00 0.00 0.00 84 1010.4
20260502013601 74 12 2.0 7.0 0.00 0.00 0.00 84 1010.4
20260502012601 74 126 4.0 9.0 0.00 0.00 0.00 83 1009.0
20260502012102 75 135 4.0 9.0 0.00 0.00 0.00 82 1008.5
20260502011601 75 41 3.0 8.0 0.00 0.00 0.00 81 1009.6
20260502011101 75 61 3.0 7.0 0.00 0.00 0.00 80 1010.1
20260502010601 75 342 4.0 9.0 0.00 0.00 0.00 79 1010.5
20260502010101 76 25 4.0 9.0 0.00 0.00 0.00 79 1009.6
20260502005102 76 50 4.0 11.0 0.00 0.00 0.00 77 1010.1
20260502004601 77 11 3.0 11.0 0.00 0.00 0.00 77 1010.1
20260502004100 77 22 3.0 6.0 0.00 0.00 0.00 76 1010.1
20260502003600 78 24 2.0 7.0 0.00 0.00 0.00 75 1009.9
20260502003102 78 36 2.0 7.0 0.00 0.00 0.00 76 1009.9
20260502002602 78 40 2.0 4.0 0.00 0.00 0.00 75 1009.9
20260502002101 78 94 1.0 3.0 0.00 0.00 0.00 74 1009.9
20260502001602 79 0 2.0 8.0 0.00 0.00 0.00 72 1009.7
20260502001100 79 22 4.0 8.0 0.00 0.00 0.00 71 1009.5
20260502000600 79 18 4.0 6.0 0.00 0.00 0.00 68 1009.5
20260502000101 80 14 4.0 6.0 0.00 0.00 0.00 68 1009.3
20260501235601 80 22 4.0 9.0 0.00 0.00 0.00 68 1009.2
20260501235106 80 10 5.0 9.0 0.00 0.00 0.00 67 1009.0
20260501234101 80 355 5.0 9.0 0.00 0.01 0.00 67 1008.8
20260501233102 80 306 5.0 9.0 0.00 0.02 0.00 66 1008.7
20260501232601 81 314 6.0 11.0 0.00 0.02 0.00 66 1008.6
20260501231601 81 22 3.0 9.0 0.00 0.13 0.00 66 1008.6
20260501231101 81 313 3.0 7.0 0.00 0.23 0.00 65 1008.7
20260501230605 81 356 4.0 9.0 0.00 0.24 0.00 65 1008.6
20260501230101 81 328 5.0 9.0 0.00 0.24 0.00 65 1008.6
20260501225601 82 327 5.0 10.0 0.00 0.24 0.00 65 1008.5
20260501225101 82 348 4.0 10.0 0.00 0.24 0.00 64 1008.3
20260501224100 82 321 3.0 8.0 0.00 0.24 0.00 64 1008.3
20260501223555 83 319 4.0 9.0 0.00 0.24 0.00 63 1008.2
20260501222554 83 348 5.0 9.0 0.00 0.24 0.00 62 1008.2
20260501222054 83 320 5.0 10.0 0.00 0.24 0.00 62 1008.2
20260501221554 83 335 6.0 10.0 0.00 0.24 0.00 62 1008.2
20260501221059 83 343 8.0 0.0 0.00 0.24 0.00 61 1008.1
20260501220530 84 328 3.0 8.0 0.00 0.24 0.00 60 1008.1
20260501220029 84 322 2.0 5.0 0.00 0.24 0.00 60 1008.0
20260501215529 84 343 3.0 6.0 0.00 0.24 0.00 59 1008.0
20260501215030 84 323 3.0 7.0 0.00 0.24 0.00 60 1008.0
20260501214529 84 327 3.0 7.0 0.00 0.24 0.00 59 1008.1
20260501214028 84 288 2.0 4.0 0.00 0.24 0.00 60 1008.0
20260501213530 84 292 2.0 7.0 0.00 0.24 0.00 60 1008.1
20260501213030 84 298 4.0 7.0 0.00 0.24 0.00 60 1008.2
20260501212530 84 325 4.0 9.0 0.00 0.24 0.00 60 1008.2
20260501210530 84 296 3.0 6.0 0.00 0.24 0.00 58 1008.0
20260501210030 84 268 4.0 8.0 0.00 0.24 0.00 59 1007.8
20260501205529 84 320 3.0 8.0 0.00 0.24 0.00 59 1007.8
20260501204529 85 291 4.0 8.0 0.00 0.24 0.00 58 1007.8
20260501204031 84 340 3.0 9.0 0.00 0.24 0.00 58 1007.8
20260501203528 84 258 4.0 9.0 0.00 0.24 0.00 58 1007.8
20260501203028 84 289 4.0 9.0 0.00 0.24 0.00 58 1007.8
20260501202532 83 321 4.0 9.0 0.00 0.24 0.00 59 1008.0
20260501202028 83 291 4.0 9.0 0.00 0.24 0.00 59 1008.1
20260501201529 84 303 3.0 9.0 0.00 0.24 0.00 59 1008.0
20260501201029 84 231 4.0 9.0 0.00 0.24 0.00 60 1008.1
20260501200529 85 245 4.0 10.0 0.00 0.24 0.00 57 1008.2
20260501200030 85 314 4.0 10.0 0.00 0.24 0.00 58 1008.2
20260501195028 84 281 4.0 11.0 0.00 0.24 0.00 57 1008.5
20260501194529 84 299 6.0 11.0 0.00 0.24 0.00 59 1008.7
20260501194030 84 277 5.0 9.0 0.00 0.24 0.00 58 1008.7
20260501193030 83 346 4.0 11.0 0.00 0.24 0.00 61 1009.0
20260501192527 83 267 6.0 16.0 0.00 0.24 0.00 60 1009.2
20260501192027 82 311 6.0 16.0 0.00 0.24 0.00 62 1009.3
20260501191527 83 301 4.0 11.0 0.00 0.24 0.00 61 1009.4
20260501191027 82 317 4.0 11.0 0.00 0.24 0.00 62 1009.5
20260501190526 82 253 4.0 9.0 0.00 0.24 0.00 62 1009.5
20260501190026 82 339 5.0 11.0 0.00 0.24 0.00 61 1009.5
20260501185027 82 355 6.0 12.0 0.00 0.24 0.00 62 1009.4
20260501184527 82 304 5.0 12.0 0.00 0.24 0.00 61 1009.4
20260501184026 82 279 4.0 8.0 0.00 0.24 0.00 61 1009.5
20260501183527 82 323 4.0 9.0 0.00 0.27 0.00 61 1009.5
20260501183024 82 43 4.0 10.0 0.00 0.30 0.00 61 1009.7
20260501182525 82 347 4.0 10.0 0.00 0.47 0.00 61 1009.8
20260501182023 81 40 4.0 10.0 0.00 0.62 0.00 64 1009.9
20260501181525 80 256 3.0 7.0 0.00 0.78 0.00 65 1010.0
20260501181023 80 309 3.0 7.0 0.00 0.80 0.00 65 1010.1
20260501180025 80 304 4.0 10.0 0.00 0.80 0.00 64 1009.9
20260501175526 80 356 5.0 10.0 0.00 0.80 0.00 65 1009.9
20260501175025 81 310 5.0 13.0 0.00 0.80 0.00 62 1010.0
20260501173525 80 325 4.0 9.0 0.00 0.82 0.00 64 1010.1
20260501173022 81 298 4.0 9.0 0.00 0.83 0.00 63 1010.2
20260501172522 80 302 5.0 10.0 0.00 0.83 0.00 63 1010.1
20260501172023 80 293 6.0 11.0 0.00 0.83 0.00 64 1010.2
20260501171522 80 295 6.0 11.0 0.00 0.83 0.00 65 1010.5
20260501171023 80 336 6.0 11.0 0.00 0.83 0.00 66 1010.6
20260501170523 80 304 5.0 11.0 0.00 0.83 0.00 65 1010.6
20260501170023 80 288 4.0 10.0 0.00 0.83 0.00 67 1010.8
20260501165522 80 229 4.0 10.0 0.00 0.83 0.00 65 1010.9
20260501165023 79 317 5.0 10.0 0.00 0.83 0.00 67 1010.9
20260501164521 79 310 4.0 9.0 0.00 0.83 0.00 69 1011.1
20260501164020 78 15 4.0 9.0 0.00 0.83 0.00 69 1011.2
20260501163019 79 308 3.0 8.0 0.00 0.83 0.00 69 1011.2
20260501162520 79 321 3.0 9.0 0.00 0.83 0.00 70 1011.2
20260501162020 80 277 4.0 9.0 0.00 0.85 0.00 69 1011.2
20260501161519 79 0 4.0 9.0 0.00 0.85 0.00 68 1011.2
20260501160517 78 343 3.0 8.0 0.00 0.85 0.00 70 1011.3
20260501155517 78 332 3.0 8.0 0.00 0.85 0.00 70 1011.4
20260501154518 78 216 2.0 9.0 0.00 0.85 0.00 72 1011.5
20260501154018 79 218 3.0 11.0 0.00 0.85 0.00 71 1011.5
20260501153014 78 172 4.0 9.0 0.00 0.85 0.00 69 1011.5
20260501152514 78 291 4.0 8.0 0.00 0.85 0.00 72 1011.5
20260501152014 77 336 4.0 8.0 0.00 0.85 0.00 73 1011.6
20260501151016 77 324 2.0 8.0 0.00 0.85 0.00 75 1011.6
20260501150516 77 0 1.0 5.0 0.00 0.85 0.00 75 1011.7
20260501150016 77 0 1.0 6.0 0.00 0.85 0.00 76 1011.8
20260501145016 76 325 3.0 9.0 0.00 0.85 0.00 78 1011.5
20260501144515 76 241 2.0 9.0 0.00 0.85 0.00 77 1011.5
20260501144013 77 313 1.0 5.0 0.00 0.85 0.00 77 1011.4
20260501143513 76 0 1.0 5.0 0.00 0.85 0.00 79 1011.4
20260501143012 77 292 2.0 5.0 0.00 0.85 0.00 79 1011.3
20260501142009 76 340 2.0 7.0 0.00 0.85 0.00 80 1011.2
20260501141507 75 355 2.0 7.0 0.00 0.85 0.00 81 1011.2